When you browse on this site, cookies collect data to enhance your experience and personalize the content and advertising you see.
Visit our Privacy Policy to learn more. By continuing to use the site, you agree to this use of cookies and data.
  • In Hungary
  • List of Countries
  • For 7 days
  • Water Temperature
  • Satellite Maps
  • Weather Map
  • News
  • Weather Widgets
  • user-avatar
    Login

    Hourly Weather Buenos Aires

    Today, 26 March, Tuesday

    Time Temperature Precipitation Wind Pressure Humidity
    00:00 +15°C° 0 mm 4 mps 765 mmHg 66%
    01:00 +15°C° 0 mm 4 mps 765 mmHg 67%
    02:00 +14°C° 0 mm 4 mps 766 mmHg 70%
    03:00 +14°C° 0 mm 4 mps 766 mmHg 72%
    04:00 +14°C° 0 mm 4 mps 766 mmHg 74%
    05:00 +13°C° 0 mm 4 mps 766 mmHg 76%
    06:00 +14°C° 0 mm 4 mps 766 mmHg 75%
    07:00 +14°C° 0 mm 4 mps 766 mmHg 73%
    08:00 +15°C° 0 mm 5 mps 767 mmHg 71%
    09:00 +17°C° 0 mm 5 mps 767 mmHg 64%
    10:00 +20°C° 0 mm 4 mps 767 mmHg 57%
    11:00 +22°C° 0 mm 4 mps 767 mmHg 50%
    12:00 +22°C° 0.1 mm 5 mps 767 mmHg 50%
    13:00 +22°C° 0.1 mm 5 mps 767 mmHg 51%
    14:00 +22°C° 0.1 mm 5 mps 766 mmHg 51%
    15:00 +22°C° 0.1 mm 5 mps 766 mmHg 54%
    16:00 +22°C° 0.1 mm 6 mps 766 mmHg 56%
    17:00 +21°C° 0.1 mm 6 mps 766 mmHg 58%
    18:00 +21°C° 0 mm 6 mps 767 mmHg 60%
    19:00 +20°C° 0 mm 6 mps 767 mmHg 62%
    20:00 +20°C° 0 mm 6 mps 768 mmHg 65%
    21:00 +19°C° 0 mm 6 mps 768 mmHg 66%
    22:00 +19°C° 0 mm 5 mps 768 mmHg 67%
    23:00 +19°C° 0 mm 5 mps 769 mmHg 68%

    Tomorrow, 27 March, Wednesday

    Time Temperature Precipitation Wind Pressure Humidity
    00:00 +19°C° 0 mm 5 mps 769 mmHg 68%
    01:00 +19°C° 0 mm 4 mps 769 mmHg 69%
    02:00 +18°C° 0 mm 4 mps 769 mmHg 70%
    03:00 +18°C° 0.1 mm 4 mps 769 mmHg 70%
    04:00 +18°C° 0.1 mm 4 mps 769 mmHg 70%
    05:00 +18°C° 0.1 mm 3 mps 769 mmHg 71%
    06:00 +19°C° 0.1 mm 4 mps 769 mmHg 69%
    07:00 +19°C° 0.1 mm 4 mps 770 mmHg 68%
    08:00 +20°C° 0.1 mm 4 mps 770 mmHg 67%
    09:00 +21°C° 0 mm 4 mps 770 mmHg 61%
    10:00 +22°C° 0 mm 4 mps 770 mmHg 56%
    11:00 +23°C° 0 mm 5 mps 770 mmHg 50%
    12:00 +23°C° 0 mm 4 mps 769 mmHg 49%
    13:00 +25°C° 0 mm 4 mps 769 mmHg 47%
    14:00 +25°C° 0 mm 4 mps 768 mmHg 45%
    15:00 +25°C° 0 mm 4 mps 768 mmHg 47%
    16:00 +25°C° 0 mm 5 mps 768 mmHg 49%
    17:00 +23°C° 0 mm 5 mps 768 mmHg 50%
    18:00 +23°C° 0 mm 5 mps 768 mmHg 52%
    19:00 +22°C° 0 mm 5 mps 768 mmHg 55%
    20:00 +22°C° 0 mm 5 mps 768 mmHg 57%
    21:00 +21°C° 0 mm 5 mps 769 mmHg 58%
    22:00 +21°C° 0 mm 5 mps 769 mmHg 60%
    23:00 +21°C° 0 mm 5 mps 769 mmHg 61%

    Day after tomorrow, 28 March, Thursday

    Time Temperature Precipitation Wind Pressure Humidity
    00:00 +21°C° 0 mm 6 mps 769 mmHg 64%
    01:00 +20°C° 0 mm 6 mps 769 mmHg 67%
    02:00 +19°C° 0 mm 6 mps 768 mmHg 71%
    03:00 +19°C° 0 mm 5 mps 768 mmHg 73%
    04:00 +19°C° 0 mm 5 mps 768 mmHg 75%
    05:00 +19°C° 0 mm 5 mps 768 mmHg 77%
    06:00 +19°C° 0 mm 5 mps 769 mmHg 76%
    07:00 +20°C° 0 mm 5 mps 769 mmHg 74%
    08:00 +20°C° 0 mm 5 mps 769 mmHg 72%
    09:00 +21°C° 0 mm 4 mps 769 mmHg 66%
    10:00 +23°C° 0 mm 4 mps 769 mmHg 60%
    11:00 +25°C° 0 mm 4 mps 769 mmHg 54%
    12:00 +26°C° 0 mm 3 mps 768 mmHg 51%
    13:00 +26°C° 0 mm 3 mps 767 mmHg 49%
    14:00 +27°C° 0 mm 2 mps 767 mmHg 46%
    15:00 +27°C° 0 mm 2 mps 766 mmHg 47%
    16:00 +27°C° 0 mm 2 mps 766 mmHg 48%
    17:00 +26°C° 0 mm 2 mps 766 mmHg 49%
    18:00 +26°C° 0 mm 3 mps 766 mmHg 54%
    19:00 +25°C° 0 mm 4 mps 766 mmHg 58%
    20:00 +25°C° 0 mm 4 mps 766 mmHg 63%
    21:00 +25°C° 0.1 mm 5 mps 766 mmHg 65%
    22:00 +23°C° 0.1 mm 6 mps 766 mmHg 68%
    23:00 +23°C° 0.1 mm 7 mps 766 mmHg 71%

    29 March, Friday

    Time Temperature Precipitation Wind Pressure Humidity
    00:00 +23°C° 0 mm 6 mps 765 mmHg 73%
    01:00 +22°C° 0 mm 6 mps 765 mmHg 75%
    02:00 +22°C° 0 mm 5 mps 764 mmHg 76%
    03:00 +21°C° 0.2 mm 5 mps 764 mmHg 78%
    04:00 +21°C° 0.2 mm 5 mps 764 mmHg 79%
    05:00 +21°C° 0.2 mm 5 mps 764 mmHg 81%
    06:00 +21°C° 0 mm 5 mps 764 mmHg 80%
    07:00 +22°C° 0 mm 5 mps 764 mmHg 78%
    08:00 +22°C° 0 mm 5 mps 764 mmHg 77%
    09:00 +22°C° 0 mm 5 mps 763 mmHg 75%
    10:00 +23°C° 0 mm 4 mps 763 mmHg 74%
    11:00 +23°C° 0 mm 4 mps 763 mmHg 72%
    12:00 +25°C° 0 mm 4 mps 762 mmHg 68%
    13:00 +26°C° 0 mm 4 mps 761 mmHg 63%
    14:00 +27°C° 0 mm 3 mps 760 mmHg 59%
    15:00 +27°C° 0 mm 3 mps 759 mmHg 59%
    16:00 +27°C° 0 mm 3 mps 759 mmHg 58%
    17:00 +27°C° 0 mm 3 mps 759 mmHg 58%
    18:00 +27°C° 0 mm 4 mps 759 mmHg 61%
    19:00 +26°C° 0 mm 4 mps 759 mmHg 64%
    20:00 +26°C° 0 mm 4 mps 759 mmHg 68%
    21:00 +25°C° 0.8 mm 4 mps 758 mmHg 70%
    22:00 +25°C° 0.8 mm 4 mps 758 mmHg 73%
    23:00 +23°C° 0.8 mm 4 mps 758 mmHg 76%

    30 March, Saturday

    Time Temperature Precipitation Wind Pressure Humidity
    00:00 +23°C° 2.7 mm 4 mps 758 mmHg 79%
    01:00 +24°C° 2.7 mm 3 mps 758 mmHg 83%
    02:00 +23°C° 2.7 mm 2 mps 757 mmHg 86%
    03:00 +22°C° 1.2 mm 3 mps 757 mmHg 87%
    04:00 +22°C° 1.2 mm 3 mps 757 mmHg 88%
    05:00 +22°C° 1.2 mm 3 mps 757 mmHg 89%
    06:00 +24°C° 0 mm 3 mps 757 mmHg 87%
    07:00 +24°C° 0 mm 3 mps 757 mmHg 85%
    08:00 +25°C° 0 mm 3 mps 757 mmHg 84%
    09:00 +26°C° 0.6 mm 3 mps 757 mmHg 74%
    10:00 +28°C° 0.6 mm 3 mps 757 mmHg 65%
    11:00 +30°C° 0.6 mm 2 mps 756 mmHg 56%
    12:00 +31°C° 0.1 mm 2 mps 756 mmHg 52%
    13:00 +32°C° 0.1 mm 1 mps 755 mmHg 49%
    14:00 +31°C° 0.1 mm 0 mps 755 mmHg 45%
    15:00 +30°C° 0 mm 0 mps 754 mmHg 47%
    16:00 +29°C° 0 mm 0 mps 754 mmHg 49%
    17:00 +28°C° 0 mm 0 mps 754 mmHg 51%
    18:00 +30°C° 0 mm 1 mps 754 mmHg 53%
    19:00 +29°C° 0 mm 1 mps 754 mmHg 55%
    20:00 +28°C° 0 mm 1 mps 754 mmHg 57%
    21:00 +28°C° 0 mm 2 mps 754 mmHg 59%
    22:00 +27°C° 0 mm 3 mps 754 mmHg 62%
    23:00 +26°C° 0 mm 3 mps 754 mmHg 64%

    31 March, Sunday

    Time Temperature Precipitation Wind Pressure Humidity
    00:00 +23°C° 0 mm 5 mps 754 mmHg 66%
    01:00 +22°C° 0 mm 6 mps 754 mmHg 68%
    02:00 +20°C° 0 mm 7 mps 754 mmHg 70%
    03:00 +18°C° 0 mm 7 mps 754 mmHg 71%
    04:00 +17°C° 0 mm 7 mps 754 mmHg 73%
    05:00 +16°C° 0 mm 7 mps 754 mmHg 75%
    06:00 +16°C° 0 mm 7 mps 754 mmHg 75%
    07:00 +16°C° 0 mm 7 mps 755 mmHg 75%
    08:00 +16°C° 0 mm 7 mps 755 mmHg 75%
    09:00 +17°C° 0 mm 6 mps 755 mmHg 72%
    10:00 +19°C° 0 mm 6 mps 755 mmHg 69%
    11:00 +19°C° 0 mm 6 mps 755 mmHg 66%
    12:00 +21°C° 0 mm 5 mps 754 mmHg 60%
    13:00 +22°C° 0 mm 5 mps 754 mmHg 54%
    14:00 +25°C° 0 mm 5 mps 753 mmHg 49%
    15:00 +25°C° 0 mm 5 mps 753 mmHg 50%
    16:00 +25°C° 0 mm 4 mps 753 mmHg 52%
    17:00 +25°C° 0 mm 4 mps 753 mmHg 53%
    18:00 +23°C° 0 mm 4 mps 754 mmHg 56%
    19:00 +22°C° 0 mm 3 mps 754 mmHg 59%
    20:00 +22°C° 0 mm 3 mps 755 mmHg 62%
    21:00 +21°C° 0 mm 3 mps 755 mmHg 65%
    22:00 +21°C° 0 mm 3 mps 755 mmHg 67%
    23:00 +21°C° 0 mm 3 mps 755 mmHg 69%
    Show more